Wind_Speed
11 13 13 14 14 15 15 16 17 17 18 18 18 17 16 15 13 12 10 9 7 6 4 3 4 7 11 14 16 18 19 20 19 17 15 14 13 11 10 9 8 8 8
10 11 12 12 12 13 14 14 15 16 17 17 18 18 17 16 15 14 12 10 9 7 5 4 3 4 7 9 11 14 16 18 18 17 16 16 16 15 13 12 11 11 10
8 9 10 11 11 11 12 12 13 14 15 16 16 17 17 17 16 15 14 12 11 9 7 5 3 2 3 5 7 9 10 13 14 15 16 15 16 16 16 15 14 13 12
7 8 9 9 9 9 9 10 10 11 12 13 14 15 15 16 16 16 15 14 13 11 10 8 6 4 3 3 4 5 6 6 7 10 11 12 13 14 15 15 15 14 13
6 7 7 8 8 7 7 7 7 7 8 9 10 11 13 14 15 15 15 15 14 14 12 11 9 7 6 5 5 5 4 4 3 4 5 7 8 9 11 12 12 12 12
6 6 7 7 7 6 6 5 4 4 4 5 6 7 8 10 11 13 13 14 14 15 14 13 12 11 9 8 7 6 6 5 4 3 2 3 4 5 7 8 9 9 9
6 6 7 7 7 7 6 5 4 3 1 1 1 2 4 5 7 9 10 12 12 13 14 14 13 12 11 10 9 8 7 6 5 4 2 2 1 1 2 2 3 4 5
7 7 7 8 8 8 8 8 7 6 5 4 3 1 1 2 3 5 6 8 9 10 11 12 13 12 12 10 9 8 7 6 5 5 4 4 3 3 3 2 1 0 1
9 9 10 9 10 10 10 10 10 9 8 7 6 5 3 2 1 2 3 4 5 6 7 8 10 10 10 10 9 8 7 6 6 5 5 5 4 4 4 4 3 2 1
10 11 12 12 13 13 13 13 12 12 11 10 9 8 6 5 4 3 2 2 2 3 3 4 5 7 8 8 8 7 6 6 6 5 5 4 4 4 4 3 3 2 2
10 11 12 14 15 15 16 16 15 15 14 13 12 11 9 8 7 6 5 4 3 2 2 2 1 2 3 5 5 5 5 5 4 4 4 4 3 3 3 2 2 2 1
13 14 14 15 16 17 17 17 17 17 17 16 15 14 13 11 10 9 8 7 6 5 5 4 4 3 2 1 1 2 2 2 2 3 3 2 2 2 2 1 1 1 1
18 18 18 19 19 19 19 19 19 19 19 19 18 17 16 15 14 12 12 11 10 9 8 8 7 7 6 5 4 3 2 2 2 2 2 2 2 2 2 2 2 3 3
21 22 23 24 25 25 24 23 22 21 21 21 20 19 18 17 16 15 14 13 13 12 12 11 11 10 10 9 9 8 7 6 5 5 5 4 4 4 4 4 4 5 5
25 26 26 27 27 29 29 28 28 26 25 24 23 22 21 20 19 18 17 16 15 14 14 14 14 14 13 13 12 12 11 11 10 9 8 7 7 6 6 6 6 7 7
30 30 31 32 31 30 30 31 32 33 31 30 28 26 25 23 22 21 20 18 17 16 15 16 16 16 16 16 15 15 15 14 14 13 12 11 10 9 9 9 9 9 10
36 36 37 37 37 37 36 35 34 34 36 35 33 32 30 28 26 24 22 21 19 18 17 17 17 17 18 18 18 18 18 17 17 17 17 16 15 13 13 12 12 12 12
41 42 43 43 43 43 42 41 40 38 37 37 36 35 34 34 31 28 26 24 22 20 19 19 19 20 20 20 20 20 20 20 20 20 20 20 19 18 16 16 15 15 15
44 45 46 47 47 47 47 47 46 44 42 40 38 38 37 36 35 33 31 27 25 22 21 21 21 22 22 21 21 21 21 21 21 21 22 22 22 21 20 19 18 18 17
44 46 48 49 50 50 51 51 51 49 48 45 43 40 39 37 35 33 31 30 27 25 24 24 23 24 24 24 24 23 23 22 22 22 23 23 24 24 23 22 21 21 20
44 46 48 50 51 52 53 53 54 53 52 51 48 44 41 38 36 33 32 32 30 27 26 26 25 26 26 26 26 26 25 25 24 24 24 25 25 25 25 25 24 23 23
42 44 46 48 51 52 53 54 55 55 54 54 52 50 45 42 38 35 33 32 32 30 29 28 26 26 28 28 27 27 26 26 26 26 26 25 25 25 26 26 26 26 26
40 42 44 45 47 49 51 52 53 54 55 54 53 51 48 46 42 38 35 34 33 31 30 29 29 28 28 28 28 28 28 28 28 28 28 27 27 27 27 27 27 28 28
36 37 38 40 42 44 46 47 48 50 51 51 50 50 49 47 44 41 39 37 36 34 32 31 30 30 29 29 29 29 29 31 30 29 29 29 29 29 29 28 28 29 29
27 27 28 30 32 34 37 39 40 42 45 46 46 47 47 46 44 42 41 40 38 37 36 34 31 30 29 29 28 27 28 31 32 32 31 31 31 30 30 29 29 29 29
20 20 20 22 23 25 28 30 33 35 38 40 42 43 44 44 43 41 40 39 39 38 37 36 33 31 30 28 28 26 26 28 30 33 33 34 33 33 32 31 30 30 30
Wind_Direction
97 93 89 87 87 86 84 82 80 80 80 80 80 79 79 79 78 78 79 82 86 93 101 133 189 206 210 213 217 220 223 225 226 230 234 238 240 241 246 259 270 280 292
104 102 98 94 91 88 85 81 79 77 76 76 77 76 75 75 74 73 73 74 75 79 82 87 130 189 204 210 216 221 224 226 228 232 238 240 242 247 253 260 267 275 281
115 110 109 105 101 96 89 83 78 75 73 72 73 74 73 72 71 71 70 70 71 73 76 80 96 123 171 194 208 216 218 223 229 234 238 242 247 249 254 260 266 271 273
133 123 119 118 115 109 101 92 83 77 72 70 69 70 70 70 69 69 68 68 68 69 69 70 74 82 100 138 170 186 196 208 224 234 238 243 249 252 257 263 265 266 267
157 146 137 135 133 128 120 111 98 84 74 70 67 67 68 69 69 67 67 67 67 68 68 68 71 75 84 103 120 139 153 165 181 212 229 239 248 254 259 263 265 266 262
179 173 165 160 159 156 151 145 131 109 87 75 68 67 67 68 69 68 67 67 67 67 68 69 71 75 81 94 107 118 126 128 132 146 178 219 244 256 259 262 265 264 258
199 196 193 192 192 192 193 196 201 204 199 146 82 73 71 72 72 71 69 68 67 67 68 70 72 74 78 85 96 105 108 109 111 114 124 134 151 212 243 255 265 259 254
222 219 215 215 218 220 221 223 228 235 241 244 238 220 150 99 87 81 78 73 70 68 69 69 71 73 75 78 85 90 93 91 90 90 92 94 93 87 81 78 74 173 230
240 239 235 233 235 237 238 238 239 242 246 248 248 243 237 221 176 125 105 93 84 78 73 71 71 71 73 74 77 78 79 81 78 76 75 74 75 73 72 72 77 85 95
250 249 247 246 246 247 247 247 246 248 250 251 252 250 246 239 229 212 187 159 132 111 96 84 76 72 72 73 73 74 74 76 73 67 65 65 63 59 58 61 69 78 74
261 258 256 254 253 252 252 252 250 251 253 254 254 255 252 246 240 233 226 219 210 198 185 173 136 89 77 75 73 71 71 72 68 62 61 62 61 56 47 46 54 67 66
260 260 260 260 257 256 255 254 253 251 252 254 254 255 256 253 248 242 238 235 233 230 227 226 225 223 213 176 109 74 59 51 46 44 44 38 40 42 32 18 9 6 358
260 259 259 259 258 256 255 253 252 250 249 250 251 251 252 253 252 249 246 243 242 240 238 237 235 235 232 227 225 226 241 267 286 303 326 333 328 319 315 306 298 296 296
263 261 259 257 256 255 254 252 251 249 248 248 248 247 248 249 250 251 249 247 246 245 245 243 241 240 239 236 234 232 233 241 251 260 264 272 283 288 287 283 282 282 280
263 262 261 260 258 254 252 250 250 250 248 246 245 245 245 246 248 249 249 248 247 247 247 248 247 246 245 244 242 239 236 238 242 247 250 253 259 266 271 274 274 275 275
262 261 260 258 257 256 254 252 252 249 248 246 243 243 243 244 245 247 248 249 249 249 249 250 250 250 250 250 249 246 242 240 240 243 245 247 249 253 257 262 265 267 269
263 261 260 258 257 255 254 254 253 251 248 246 244 241 241 241 242 244 247 248 250 251 252 253 253 253 253 253 253 251 249 246 243 242 242 244 245 248 251 254 257 260 262
262 261 260 260 259 257 254 253 252 252 251 248 245 243 241 240 240 240 243 245 249 252 254 256 257 257 257 257 257 256 253 250 248 245 243 243 244 246 249 251 254 255 257
264 262 260 259 258 258 256 254 254 252 251 250 246 244 243 243 241 240 241 242 246 251 256 258 261 262 261 261 260 259 257 254 251 247 245 244 243 245 247 250 253 255 256
268 265 263 261 259 258 257 256 255 253 253 252 249 247 246 246 244 244 243 243 245 250 255 259 262 263 263 263 262 261 260 257 253 249 248 246 245 245 247 249 252 254 256
272 269 266 263 260 259 258 256 255 253 252 252 252 251 249 247 247 246 247 247 248 250 255 259 263 265 265 265 263 262 262 259 254 252 250 249 249 249 249 251 252 253 254
276 273 270 266 263 261 259 256 255 255 253 251 250 251 250 249 249 251 252 253 253 255 257 260 265 267 267 266 263 262 262 260 256 252 252 252 252 252 252 253 253 254 254
281 278 275 271 267 264 261 258 256 254 252 251 251 250 251 251 252 253 254 255 258 259 259 261 263 267 267 267 265 264 259 258 257 255 253 252 254 255 256 256 255 254 254
287 284 279 274 270 266 262 260 257 254 252 251 251 250 251 252 254 255 256 257 258 260 262 266 266 267 268 269 267 265 259 254 253 254 254 254 255 256 258 258 256 254 254
296 292 287 281 276 269 263 259 256 253 250 249 248 249 249 250 252 253 256 257 258 261 264 266 267 269 269 267 266 265 261 254 251 250 253 255 256 257 257 257 256 254 253
305 302 296 290 284 275 264 257 253 249 245 243 244 246 247 248 250 252 253 256 258 259 261 263 264 264 263 264 263 264 261 257 255 252 250 252 254 255 256 256 256 256 255
Height
5926 5925 5925 5925 5924 5924 5923 5922 5921 5920 5919 5917 5916 5915 5914 5914 5913 5912 5912 5912 5911 5911 5911 5911 5910 5910 5910 5911 5912 5913 5914 5916 5917 5918 5919 5920 5921 5922 5922 5922 5923 5922 5922
5927 5926 5926 5926 5926 5926 5925 5924 5924 5922 5921 5920 5918 5917 5916 5915 5914 5914 5913 5912 5911 5911 5911 5910 5910 5910 5910 5910 5911 5912 5913 5914 5915 5917 5918 5919 5919 5920 5921 5921 5921 5921 5921
5928 5927 5927 5927 5927 5927 5926 5926 5925 5924 5923 5922 5921 5919 5918 5917 5916 5915 5914 5913 5912 5911 5911 5910 5910 5909 5909 5910 5910 5911 5912 5913 5914 5915 5916 5917 5917 5918 5919 5919 5920 5920 5920
5928 5927 5927 5928 5928 5927 5927 5927 5926 5926 5925 5924 5923 5922 5920 5919 5918 5917 5916 5914 5913 5912 5911 5911 5910 5910 5910 5910 5910 5911 5911 5912 5913 5914 5915 5915 5916 5916 5917 5917 5917 5918 5918
5928 5928 5927 5928 5928 5928 5927 5927 5927 5927 5926 5925 5924 5923 5922 5921 5920 5918 5917 5916 5915 5914 5913 5912 5911 5911 5910 5910 5911 5911 5912 5912 5913 5913 5914 5914 5915 5915 5915 5915 5916 5916 5917
5928 5927 5927 5927 5927 5927 5927 5927 5927 5927 5926 5926 5925 5924 5923 5922 5921 5920 5919 5918 5917 5916 5915 5914 5913 5912 5912 5911 5912 5912 5912 5913 5913 5913 5913 5914 5914 5914 5914 5914 5914 5914 5915
5927 5927 5927 5927 5927 5926 5926 5926 5926 5926 5926 5926 5925 5924 5924 5923 5922 5921 5920 5919 5918 5917 5916 5915 5914 5914 5913 5913 5913 5913 5913 5913 5913 5914 5914 5914 5914 5914 5914 5914 5913 5913 5914
5927 5927 5926 5926 5926 5925 5925 5925 5925 5925 5925 5925 5924 5924 5923 5923 5922 5921 5921 5920 5919 5919 5918 5917 5916 5916 5915 5915 5914 5914 5914 5915 5915 5914 5914 5914 5914 5914 5914 5914 5914 5914 5914
5927 5926 5926 5925 5925 5924 5924 5924 5924 5923 5923 5923 5923 5923 5922 5922 5921 5921 5920 5920 5920 5919 5919 5918 5918 5917 5917 5916 5916 5916 5916 5916 5916 5916 5916 5915 5915 5915 5915 5915 5915 5915 5914
5926 5925 5925 5924 5923 5923 5923 5922 5922 5921 5921 5921 5921 5921 5921 5920 5920 5919 5919 5919 5919 5919 5919 5919 5919 5918 5918 5918 5918 5917 5917 5917 5917 5917 5917 5916 5916 5916 5916 5916 5916 5916 5915
5925 5924 5923 5922 5922 5921 5920 5920 5919 5919 5919 5919 5919 5919 5919 5918 5918 5918 5918 5918 5918 5918 5919 5919 5919 5919 5919 5919 5919 5918 5918 5918 5918 5917 5918 5917 5917 5917 5917 5917 5917 5917 5916
5922 5922 5921 5920 5919 5919 5918 5917 5917 5916 5916 5916 5916 5916 5916 5916 5916 5916 5916 5916 5917 5917 5917 5917 5918 5918 5918 5918 5919 5919 5919 5918 5918 5918 5918 5918 5918 5918 5918 5918 5917 5917 5917
5919 5918 5918 5917 5916 5915 5915 5914 5913 5913 5913 5912 5913 5913 5913 5913 5913 5914 5914 5914 5914 5915 5915 5916 5916 5917 5917 5917 5918 5918 5918 5918 5918 5918 5918 5918 5918 5918 5918 5918 5918 5918 5917
5914 5914 5913 5912 5912 5911 5910 5910 5909 5909 5909 5909 5909 5909 5909 5910 5910 5910 5911 5911 5912 5912 5913 5913 5914 5914 5915 5916 5916 5917 5917 5917 5917 5918 5918 5918 5918 5918 5918 5917 5917 5917 5917
5909 5909 5907 5906 5905 5905 5904 5904 5904 5904 5904 5904 5904 5904 5905 5905 5906 5907 5907 5908 5908 5909 5910 5910 5911 5912 5912 5913 5914 5914 5915 5916 5916 5916 5916 5917 5917 5917 5917 5917 5916 5916 5916
5903 5902 5901 5900 5899 5898 5897 5897 5898 5897 5897 5898 5898 5899 5900 5900 5901 5902 5902 5903 5904 5905 5906 5907 5908 5908 5909 5910 5911 5911 5912 5913 5913 5914 5914 5915 5915 5915 5915 5915 5915 5915 5915
5894 5894 5893 5892 5892 5892 5891 5891 5890 5889 5890 5890 5891 5892 5893 5894 5895 5896 5897 5898 5899 5901 5902 5903 5904 5904 5905 5906 5907 5908 5909 5909 5910 5910 5911 5912 5912 5912 5912 5913 5913 5913 5913
5885 5884 5883 5883 5882 5882 5882 5882 5883 5882 5883 5883 5883 5884 5885 5887 5888 5890 5891 5892 5894 5895 5896 5898 5899 5900 5901 5902 5903 5903 5904 5905 5906 5906 5907 5908 5908 5909 5909 5909 5910 5910 5910
5874 5874 5873 5872 5872 5872 5872 5873 5874 5874 5875 5875 5875 5876 5878 5879 5880 5882 5884 5885 5887 5889 5891 5892 5893 5894 5895 5896 5897 5898 5899 5900 5901 5901 5902 5903 5904 5905 5905 5905 5906 5906 5906
5863 5862 5861 5860 5860 5860 5861 5861 5862 5864 5865 5866 5867 5868 5870 5871 5873 5875 5876 5878 5880 5882 5884 5885 5887 5888 5889 5890 5891 5892 5893 5894 5895 5896 5897 5898 5899 5900 5900 5901 5901 5902 5902
5850 5849 5848 5847 5847 5847 5848 5849 5850 5851 5853 5855 5857 5860 5862 5864 5866 5868 5869 5870 5873 5875 5877 5878 5880 5881 5882 5883 5884 5886 5887 5888 5889 5890 5891 5892 5893 5894 5895 5896 5896 5897 5897
5838 5836 5834 5833 5833 5833 5834 5835 5836 5838 5841 5843 5846 5849 5852 5855 5857 5859 5862 5863 5865 5867 5869 5871 5872 5873 5875 5876 5877 5879 5880 5881 5882 5884 5885 5886 5888 5888 5889 5890 5890 5891 5892
5826 5823 5820 5819 5818 5818 5819 5820 5822 5824 5827 5830 5834 5838 5841 5845 5848 5850 5853 5856 5858 5860 5862 5864 5865 5866 5867 5868 5870 5872 5873 5874 5875 5877 5878 5880 5881 5882 5883 5884 5884 5885 5886
5814 5810 5807 5805 5804 5803 5804 5806 5808 5811 5815 5818 5822 5826 5830 5834 5838 5841 5845 5847 5849 5851 5854 5856 5858 5859 5860 5861 5862 5863 5865 5866 5868 5869 5871 5872 5874 5875 5876 5877 5878 5879 5880
5805 5800 5797 5794 5792 5791 5791 5793 5795 5798 5802 5806 5811 5815 5820 5824 5829 5832 5836 5839 5841 5843 5846 5848 5850 5851 5853 5854 5855 5856 5857 5858 5860 5862 5864 5865 5866 5867 5869 5870 5871 5872 5873
5798 5794 5790 5786 5784 5782 5781 5782 5784 5787 5791 5796 5800 5805 5809 5814 5819 5823 5827 5830 5832 5835 5837 5840 5842 5844 5845 5846 5847 5848 5850 5851 5852 5854 5856 5857 5858 5860 5861 5863 5864 5866 5867